| time (UTC) | temp F | wind direction | speed MPH | gust MPH | rain 1hr in | rain 24hr in | rain mn in | humidity % | barometer mb |
| 20260504081506 | 38 | 269 | 0.0 | 0.0 | 0.00 | 0.00 | 0.00 | 84 | 1015.0 |
| 20260504044557 | 40 | 269 | 0.0 | 0.0 | 0.00 | 0.00 | 0.00 | 77 | 1015.3 |
| 20260504043045 | 40 | 269 | 0.0 | 0.0 | 0.00 | 0.00 | 0.00 | 77 | 1015.2 |
| 20260504041542 | 40 | 269 | 0.0 | 0.0 | 0.00 | 0.00 | 0.00 | 77 | 1015.2 |
| 20260504040041 | 40 | 271 | 0.0 | 0.0 | 0.00 | 0.00 | 0.00 | 75 | 1015.0 |
| 20260504034550 | 41 | 271 | 0.0 | 0.0 | 0.00 | 0.00 | 0.00 | 75 | 1014.8 |
| 20260504033050 | 41 | 271 | 0.0 | 0.0 | 0.00 | 0.00 | 0.00 | 71 | 1015.0 |
| 20260504031537 | 42 | 271 | 0.0 | 0.0 | 0.00 | 0.00 | 0.00 | 70 | 1014.9 |
| 20260504030037 | 43 | 271 | 0.0 | 0.0 | 0.00 | 0.00 | 0.00 | 69 | 1014.8 |
| 20260504024515 | 44 | 271 | 0.0 | 0.0 | 0.00 | 0.00 | 0.00 | 67 | 1014.8 |
| 20260504023008 | 44 | 271 | 0.0 | 0.0 | 0.00 | 0.00 | 0.00 | 65 | 1014.7 |
| 20260504021537 | 45 | 271 | 0.0 | 0.0 | 0.00 | 0.00 | 0.00 | 63 | 1014.7 |
| 20260504020036 | 46 | 271 | 0.0 | 0.0 | 0.00 | 0.00 | 0.00 | 63 | 1014.7 |
| 20260504014536 | 47 | 271 | 0.0 | 0.0 | 0.00 | 0.00 | 0.00 | 58 | 1014.6 |
| 20260504013037 | 48 | 271 | 0.0 | 0.0 | 0.00 | 0.00 | 0.00 | 57 | 1014.6 |
| 20260504011533 | 49 | 271 | 0.0 | 0.0 | 0.00 | 0.00 | 0.00 | 55 | 1014.4 |
| 20260504010046 | 50 | 271 | 0.0 | 0.0 | 0.00 | 0.00 | 0.00 | 50 | 1014.3 |
| 20260504004529 | 51 | 271 | 0.0 | 3.0 | 0.00 | 0.00 | 0.00 | 51 | 1014.2 |
| 20260504003028 | 53 | 286 | 0.0 | 0.0 | 0.00 | 0.00 | 0.00 | 45 | 1014.0 |
| 20260504001528 | 54 | 286 | 0.0 | 0.0 | 0.00 | 0.00 | 0.00 | 43 | 1013.9 |
| 20260504000027 | 55 | 286 | 0.0 | 0.0 | 0.00 | 0.00 | 0.00 | 39 | 1013.8 |
| 20260503234555 | 56 | 286 | 0.0 | 0.0 | 0.00 | 0.00 | 0.00 | 39 | 1013.7 |
| 20260503233055 | 56 | 286 | 0.0 | 4.0 | 0.00 | 0.00 | 0.00 | 39 | 1013.6 |
| 20260503231654 | 57 | 328 | 0.0 | 8.0 | 0.00 | 0.00 | 0.00 | 37 | 1013.3 |
| 20260503230052 | 57 | 40 | 1.0 | 8.0 | 0.00 | 0.00 | 0.00 | 36 | 1013.3 |
| 20260503224550 | 58 | 5 | 0.0 | 4.0 | 0.00 | 0.00 | 0.00 | 36 | 1013.4 |
| 20260503223050 | 58 | 349 | 2.0 | 12.0 | 0.00 | 0.00 | 0.00 | 35 | 1013.4 |
| 20260503221547 | 59 | 348 | 2.0 | 7.0 | 0.00 | 0.00 | 0.00 | 36 | 1013.4 |
| 20260503220104 | 59 | 344 | 0.0 | 5.0 | 0.00 | 0.00 | 0.00 | 37 | 1013.5 |
| 20260503214547 | 59 | 355 | 4.0 | 12.0 | 0.00 | 0.00 | 0.00 | 35 | 1013.6 |
| 20260503213049 | 59 | 338 | 3.0 | 11.0 | 0.00 | 0.00 | 0.00 | 35 | 1013.5 |
| 20260503211600 | 60 | 333 | 2.0 | 8.0 | 0.00 | 0.00 | 0.00 | 36 | 1013.5 |
| 20260503210044 | 59 | 300 | 0.0 | 12.0 | 0.00 | 0.00 | 0.00 | 37 | 1013.4 |
| 20260503204551 | 60 | 355 | 1.0 | 6.0 | 0.00 | 0.00 | 0.00 | 37 | 1013.5 |
| 20260503203043 | 60 | 231 | 3.0 | 10.0 | 0.00 | 0.00 | 0.00 | 36 | 1013.5 |
| 20260503201540 | 59 | 23 | 1.0 | 8.0 | 0.00 | 0.00 | 0.00 | 37 | 1013.6 |
| 20260503200039 | 59 | 341 | 3.0 | 12.0 | 0.00 | 0.00 | 0.00 | 35 | 1013.8 |
| 20260503194536 | 58 | 22 | 2.0 | 8.0 | 0.00 | 0.00 | 0.00 | 35 | 1014.1 |
| 20260503193042 | 58 | 186 | 2.0 | 14.0 | 0.00 | 0.00 | 0.00 | 39 | 1014.4 |
| 20260503191536 | 58 | 5 | 4.0 | 6.0 | 0.00 | 0.00 | 0.00 | 40 | 1014.5 |
| 20260503190030 | 56 | 344 | 2.0 | 10.0 | 0.00 | 0.00 | 0.00 | 37 | 1014.5 |
| 20260503184529 | 57 | 325 | 2.0 | 9.0 | 0.00 | 0.00 | 0.00 | 41 | 1014.9 |
| 20260503183035 | 55 | 5 | 5.0 | 12.0 | 0.00 | 0.00 | 0.00 | 41 | 1015.1 |
| 20260503181549 | 56 | 313 | 3.0 | 12.0 | 0.00 | 0.00 | 0.00 | 39 | 1015.0 |
| 20260503180023 | 55 | 329 | 1.0 | 8.0 | 0.00 | 0.00 | 0.00 | 47 | 1015.2 |
| 20260503174521 | 54 | 298 | 2.0 | 13.0 | 0.00 | 0.00 | 0.00 | 43 | 1015.2 |
| 20260503173039 | 55 | 234 | 2.0 | 10.0 | 0.00 | 0.00 | 0.00 | 46 | 1015.4 |
| 20260503171517 | 53 | 257 | 0.0 | 6.0 | 0.00 | 0.00 | 0.00 | 48 | 1015.4 |
| 20260503160106 | 49 | 329 | 3.0 | 13.0 | 0.00 | 0.00 | 0.00 | 47 | 1016.1 |
| 20260503150105 | 48 | 355 | 2.0 | 14.0 | 0.00 | 0.00 | 0.00 | 47 | 1016.2 |
| 20260503100115 | 37 | 342 | 0.0 | 4.0 | 0.00 | 0.00 | 0.00 | 77 | 1014.4 |